KN4CI-1 Weather Reports


Display with metric or nautical units.
time (UTC)temp
F
wind
direction
speed
MPH
gust
MPH
rain 1hr
in
rain 24hr
in
rain mn
in
humidity
%
barometer
mb
20260906185833 98 22 0.0 0.0 0.00 0.00 0.00 10 1011.6
20260906183820 97 64 0.0 0.0 0.00 0.00 0.00 11 1012.6
20260906183320 97 1 0.0 0.0 0.00 0.00 0.00 11 1012.6
20260906182817 97 351 0.0 0.0 0.00 0.00 0.00 11 1012.6
20260906181315 96 311 0.0 0.0 0.00 0.00 0.00 11 1012.6
20260906180815 96 335 0.0 0.0 0.00 0.00 0.00 11 1012.6
20260906174259 95 335 0.0 0.0 0.00 0.00 0.00 11 1012.6
20260906173758 95 325 0.0 0.0 0.00 0.00 0.00 11 1012.6
20260906172752 95 333 0.0 0.0 0.00 0.00 0.00 11 1012.6
20260906171753 94 339 0.0 0.0 0.00 0.00 0.00 11 1013.6
20260906171250 94 317 0.0 0.0 0.00 0.00 0.00 11 1013.6
20260906170248 94 2 0.0 0.0 0.00 0.00 0.00 11 1013.6
20260906165745 93 351 0.0 0.0 0.00 0.00 0.00 11 1013.6
20260906165245 93 351 0.0 0.0 0.00 0.00 0.00 11 1013.6
20260906164744 93 345 0.0 0.0 0.00 0.00 0.00 11 1013.6
20260906164242 93 339 0.0 0.0 0.00 0.00 0.00 11 1013.6
20260906163742 92 20 0.0 0.0 0.00 0.00 0.00 11 1013.6
20260906163242 92 36 0.0 0.0 0.00 0.00 0.00 12 1013.6
20260906162738 92 351 0.0 0.0 0.00 0.00 0.00 12 1013.6
20260906162238 92 347 0.0 0.0 0.00 0.00 0.00 12 1013.6
20260906161235 91 49 0.0 0.0 0.00 0.00 0.00 12 1013.6
20260906160733 90 22 0.0 0.0 0.00 0.00 0.00 12 1013.6
20260906160233 90 351 0.0 0.0 0.00 0.00 0.00 12 1013.6
20260906153724 88 351 0.0 0.0 0.00 0.00 0.00 13 1013.6
20260906152718 87 351 0.0 0.0 0.00 0.00 0.00 13 1013.6
20260906150713 85 335 0.0 0.0 0.00 0.00 0.00 16 1013.6
20260906150213 85 335 0.0 0.0 0.00 0.00 0.00 16 1013.6
20260906132708 78 351 0.0 0.0 0.00 0.00 0.00 26 1013.6
20260906132632 78 351 0.0 0.0 0.00 0.00 0.00 26 1013.6
20260906130630 76 351 0.0 0.0 0.00 0.00 0.00 26 1014.6
20260906125128 76 351 0.0 0.0 0.00 0.00 0.00 28 1014.6
20260906124628 76 70 0.0 0.0 0.00 0.00 0.00 29 1014.6
20260906124120 75 70 0.0 0.0 0.00 0.00 0.00 30 1014.6
20260906121616 75 0 0.0 0.0 0.00 0.00 0.00 30 1013.6
20260906114609 74 0 0.0 0.0 0.00 0.00 0.00 30 1013.6
20260906114103 74 0 0.0 0.0 0.00 0.00 0.00 30 1013.6
20260906113104 74 0 0.0 0.0 0.00 0.00 0.00 30 1013.6
20260906112559 74 0 0.0 0.0 0.00 0.00 0.00 30 1014.6
20260906111600 74 0 0.0 0.0 0.00 0.00 0.00 30 1014.6
20260906111055 74 3 0.0 0.0 0.00 0.00 0.00 31 1013.6
20260906103959 74 85 0.0 0.0 0.00 0.00 0.00 27 1013.6
20260906100948 74 85 0.0 0.0 0.00 0.00 0.00 25 1013.6
20260906094945 74 85 0.0 0.0 0.00 0.00 0.00 24 1013.6
20260906092935 75 85 0.0 0.0 0.00 0.00 0.00 22 1013.6
20260906090418 76 85 0.0 0.0 0.00 0.00 0.00 21 1013.6
20260906085411 77 85 0.0 0.0 0.00 0.00 0.00 21 1013.6
20260906083859 77 70 0.0 0.0 0.00 0.00 0.00 21 1013.6
20260906083400 77 84 0.0 0.0 0.00 0.00 0.00 23 1013.6
20260906072321 76 232 0.0 0.0 0.00 0.00 0.00 29 1013.6
20260906070318 76 232 0.0 0.0 0.00 0.00 0.00 29 1013.6
20260906065315 77 232 0.0 0.0 0.00 0.00 0.00 28 1013.6
20260906063809 77 232 0.0 0.0 0.00 0.00 0.00 29 1013.6
20260906062809 78 232 0.0 0.0 0.00 0.00 0.00 29 1013.6
20260906060254 77 146 0.0 0.0 0.00 0.00 0.00 30 1013.6
20260906055750 77 169 0.0 0.0 0.00 0.00 0.00 30 1013.6
20260906055245 77 156 0.0 0.0 0.00 0.00 0.00 30 1012.6
20260906054746 77 154 0.0 0.0 0.00 0.00 0.00 30 1012.6
20260906053737 77 177 0.0 0.0 0.00 0.00 0.00 30 1012.6
20260906053237 77 116 0.0 0.0 0.00 0.00 0.00 30 1012.6
20260906052235 77 120 0.0 0.0 0.00 0.00 0.00 30 1012.6
20260906051735 77 120 0.0 0.0 0.00 0.00 0.00 30 1012.6
20260906051235 77 120 0.0 0.0 0.00 0.00 0.00 30 1012.6
20260906050731 77 120 0.0 0.0 0.00 0.00 0.00 30 1013.6
20260906050231 77 119 0.0 0.0 0.00 0.00 0.00 30 1013.6
20260906045227 77 120 0.0 0.0 0.00 0.00 0.00 30 1013.6
20260906044727 77 120 0.0 0.0 0.00 0.00 0.00 30 1013.6
20260906044227 77 119 0.0 0.0 0.00 0.00 0.00 30 1013.6
20260906043721 77 120 0.0 0.0 0.00 0.00 0.00 29 1013.6
20260906043221 78 119 0.0 0.0 0.00 0.00 0.00 29 1013.6
20260906042217 78 120 0.0 0.0 0.00 0.00 0.00 27 1012.6
20260906033156 79 103 0.0 0.0 0.00 0.00 0.00 25 1012.6
20260906032657 79 103 0.0 0.0 0.00 0.00 0.00 24 1012.6
20260906015632 80 338 0.0 0.0 0.00 0.00 0.00 20 1012.6
20260906013627 81 338 0.0 0.0 0.00 0.00 0.00 20 1011.6
20260906013127 81 337 0.0 0.0 0.00 0.00 0.00 20 1011.6
20260906011624 81 338 0.0 0.0 0.00 0.00 0.00 20 1011.6
20260906011125 81 337 0.0 0.0 0.00 0.00 0.00 19 1011.6
20260906010622 82 338 0.0 0.0 0.00 0.00 0.00 19 1011.6
20260906005623 82 337 0.0 0.0 0.00 0.00 0.00 19 1011.6
20260906004620 83 337 0.0 0.0 0.00 0.00 0.00 19 1011.6
20260906003617 83 337 0.0 0.0 0.00 0.00 0.00 19 1011.6
20260906002618 84 337 0.0 0.0 0.00 0.00 0.00 16 1011.6
20260906002115 84 338 0.0 0.0 0.00 0.00 0.00 16 1011.6
20260906000611 86 337 0.0 0.0 0.00 0.00 0.00 16 1011.6
20260906000112 86 337 0.0 0.0 0.00 0.00 0.00 13 1011.6
20260905235612 86 337 0.0 0.0 0.00 0.00 0.00 13 1011.6
20260905234109 87 337 0.0 0.0 0.00 0.00 0.00 13 1011.6
20260905232607 89 338 0.0 0.0 0.00 0.00 0.00 12 1011.6
20260905231604 90 337 0.0 0.0 0.00 0.00 0.00 12 1011.6
20260905220041 94 337 0.0 0.0 0.00 0.00 0.00 11 1011.6
20260905211027 96 337 0.0 0.0 0.00 0.00 0.00 11 1011.6
20260905205521 96 318 0.0 0.0 0.00 0.00 0.00 11 1012.6
20260905204518 96 64 0.0 0.0 0.00 0.00 0.00 11 1012.6
20260905203012 98 110 0.0 0.0 0.00 0.00 0.00 10 1012.6
20260905200001 98 59 0.0 0.0 0.00 0.00 0.00 10 1012.6
20260905193959 99 326 0.0 0.0 0.00 0.00 0.00 10 1013.6